TAP1040 LPPT-LEBL

Flight info

Callsign TAP1040
Flight time N/A
Altitude 38000
Route ORVED DCT UREDI DCT DIPOL DCT RBO DCT PINAR DCT SEGRE DCT BRITO DCT PISUS DCT PONEN T600 CASPE
Aircraft A320/M-SDE3FGHIRWY/LB1

Departure

Time 2026-05-06 11:54
Airport Lisbon Humberto Delgado Airport (LPPT)

Arrival

Time N/A
Airport Josep Tarradellas Barcelona-El Prat Airport (LEBL)
Time Latitude Longitude Altitude Speed Heading
2026-05-06 11:27 38.76937 -9.13065 336 ft 0 kts 78°
2026-05-06 11:28 38.76938 -9.13066 337 ft 0 kts 78°
2026-05-06 11:47 38.76937 -9.13071 336 ft 3 kts 78°
2026-05-06 11:47 38.76932 -9.13103 332 ft 2 kts 78°
2026-05-06 11:47 38.76928 -9.13131 338 ft 4 kts 95°
2026-05-06 11:48 38.76937 -9.13154 339 ft 4 kts 165°
2026-05-06 11:48 38.76958 -9.13161 339 ft 1 kts 167°
2026-05-06 11:50 38.76955 -9.13160 339 ft 4 kts 167°
2026-05-06 11:50 38.76851 -9.13131 336 ft 17 kts 168°
2026-05-06 11:50 38.76779 -9.13175 340 ft 11 kts 254°
2026-05-06 11:50 38.76765 -9.13261 338 ft 9 kts 258°
2026-05-06 11:51 38.76750 -9.13350 346 ft 13 kts 254°
2026-05-06 11:51 38.76673 -9.13447 345 ft 16 kts 218°
2026-05-06 11:51 38.76640 -9.13575 349 ft 16 kts 258°
2026-05-06 11:51 38.76617 -9.13713 349 ft 16 kts 257°
2026-05-06 11:52 38.76593 -9.13860 346 ft 18 kts 258°
2026-05-06 11:52 38.76557 -9.14014 356 ft 17 kts 233°
2026-05-06 11:52 38.76494 -9.14144 349 ft 19 kts 265°
2026-05-06 11:52 38.76535 -9.14296 338 ft 14 kts 292°
2026-05-06 11:53 38.76540 -9.14313 337 ft 1 kts 292°
2026-05-06 11:53 38.76553 -9.14352 335 ft 9 kts 292°
2026-05-06 11:53 38.76600 -9.14402 331 ft 11 kts 349°
2026-05-06 11:53 38.76745 -9.14335 339 ft 49 kts 21°
2026-05-06 11:54 38.77308 -9.14034 359 ft 128 kts 22°
2026-05-06 11:54 38.78315 -9.13490 661 ft 168 kts 22°
2026-05-06 11:54 38.79404 -9.12916 1609 ft 172 kts 21°
2026-05-06 11:54 38.80539 -9.12316 2182 ft 186 kts 22°
2026-05-06 11:55 38.81785 -9.11589 2514 ft 209 kts 31°
2026-05-06 11:55 38.83080 -9.10566 3048 ft 228 kts 31°
2026-05-06 11:55 38.84498 -9.09453 3569 ft 250 kts 31°
2026-05-06 11:55 38.86015 -9.08274 4382 ft 259 kts 31°
2026-05-06 11:56 38.87579 -9.07061 5243 ft 266 kts 31°
2026-05-06 11:56 38.89080 -9.05617 6087 ft 273 kts 45°
2026-05-06 11:56 38.90255 -9.03680 6974 ft 279 kts 60°
2026-05-06 11:56 38.91117 -9.01425 7839 ft 284 kts 64°
2026-05-06 11:57 38.91975 -8.99115 8697 ft 289 kts 64°
2026-05-06 11:57 38.92850 -8.96765 9517 ft 294 kts 64°
2026-05-06 11:57 38.93734 -8.94390 10032 ft 301 kts 64°
2026-05-06 11:57 38.94641 -8.91956 10183 ft 303 kts 64°
2026-05-06 11:58 38.95597 -8.89389 10223 ft 333 kts 64°
2026-05-06 11:58 38.96614 -8.86657 10221 ft 342 kts 64°
2026-05-06 11:58 38.97644 -8.83893 10220 ft 344 kts 64°
2026-05-06 11:58 38.98679 -8.81114 10220 ft 344 kts 64°
2026-05-06 11:59 38.99712 -8.78335 10228 ft 344 kts 64°
2026-05-06 11:59 39.00742 -8.75558 10249 ft 344 kts 64°
2026-05-06 11:59 39.01774 -8.72775 10230 ft 344 kts 64°
2026-05-06 11:59 39.02804 -8.69994 10229 ft 344 kts 64°
2026-05-06 12:00 39.03833 -8.67213 10229 ft 344 kts 64°
2026-05-06 12:00 39.04862 -8.64432 10230 ft 345 kts 64°
2026-05-06 12:00 39.05879 -8.61684 10229 ft 344 kts 64°
2026-05-06 12:00 39.06907 -8.58902 10229 ft 344 kts 64°
2026-05-06 12:01 39.07934 -8.56121 10229 ft 344 kts 64°
2026-05-06 12:01 39.08959 -8.53337 10229 ft 344 kts 65°
2026-05-06 12:01 39.09981 -8.50551 10229 ft 344 kts 65°
2026-05-06 12:01 39.11006 -8.47758 10229 ft 344 kts 65°
2026-05-06 12:02 39.12030 -8.44975 10229 ft 344 kts 65°
2026-05-06 12:02 39.13054 -8.42191 10229 ft 344 kts 64°
2026-05-06 12:02 39.14080 -8.39406 10229 ft 344 kts 64°
2026-05-06 12:02 39.15106 -8.36619 10229 ft 344 kts 65°
2026-05-06 12:03 39.16127 -8.33834 10238 ft 344 kts 65°
2026-05-06 12:03 39.17145 -8.31044 10251 ft 344 kts 65°
2026-05-06 12:03 39.18163 -8.28251 10229 ft 344 kts 65°
2026-05-06 12:03 39.19183 -8.25455 10229 ft 345 kts 65°
2026-05-06 12:04 39.20202 -8.22658 10229 ft 345 kts 65°
2026-05-06 12:04 39.21223 -8.19852 10228 ft 345 kts 65°
2026-05-06 12:04 39.22228 -8.17091 10229 ft 345 kts 65°
2026-05-06 12:04 39.23246 -8.14289 10229 ft 345 kts 65°
2026-05-06 12:05 39.24265 -8.11488 10232 ft 345 kts 65°
2026-05-06 12:05 39.25282 -8.08687 10238 ft 345 kts 65°
2026-05-06 12:05 39.26298 -8.05881 10238 ft 345 kts 65°
2026-05-06 12:05 39.27311 -8.03075 10237 ft 345 kts 65°
2026-05-06 12:06 39.28290 -8.00251 10238 ft 345 kts 67°
2026-05-06 12:06 39.29178 -7.97376 10231 ft 345 kts 69°
2026-05-06 12:06 39.30013 -7.94474 10229 ft 345 kts 70°
2026-05-06 12:06 39.30827 -7.91563 10230 ft 345 kts 70°
2026-05-06 12:07 39.31638 -7.88648 10227 ft 345 kts 70°
2026-05-06 12:07 39.32455 -7.85733 10228 ft 345 kts 70°
2026-05-06 12:07 39.33279 -7.82821 10229 ft 345 kts 70°
2026-05-06 12:07 39.34108 -7.79917 10229 ft 345 kts 70°
2026-05-06 12:08 39.34940 -7.77013 10229 ft 345 kts 70°
2026-05-06 12:08 39.35775 -7.74110 10228 ft 345 kts 70°
2026-05-06 12:08 39.36607 -7.71204 10228 ft 345 kts 70°
2026-05-06 12:08 39.37440 -7.68301 10228 ft 345 kts 70°
2026-05-06 12:09 39.38282 -7.65402 10229 ft 345 kts 67°
2026-05-06 12:09 39.39325 -7.62614 10230 ft 345 kts 63°
2026-05-06 12:09 39.40399 -7.59844 10229 ft 345 kts 63°
2026-05-06 12:09 39.41473 -7.57076 10229 ft 345 kts 63°
2026-05-06 12:10 39.42546 -7.54302 10229 ft 345 kts 63°
2026-05-06 12:10 39.43615 -7.51528 10229 ft 345 kts 63°
2026-05-06 12:10 39.44681 -7.48753 10229 ft 345 kts 63°
2026-05-06 12:10 39.45746 -7.45974 10229 ft 345 kts 63°
2026-05-06 12:11 39.46811 -7.43195 10229 ft 345 kts 63°
2026-05-06 12:11 39.47877 -7.40412 10228 ft 345 kts 63°
2026-05-06 12:11 39.48926 -7.37677 10229 ft 344 kts 63°
2026-05-06 12:11 39.49987 -7.34903 10229 ft 344 kts 63°
2026-05-06 12:12 39.51062 -7.32095 10229 ft 344 kts 63°
2026-05-06 12:12 39.52121 -7.29324 10227 ft 343 kts 63°
2026-05-06 12:12 39.53165 -7.26585 10230 ft 344 kts 63°
2026-05-06 12:12 39.54224 -7.23809 10229 ft 343 kts 63°
2026-05-06 12:13 39.55283 -7.21037 10230 ft 343 kts 63°
2026-05-06 12:13 39.56344 -7.18263 10229 ft 343 kts 63°
2026-05-06 12:13 39.57402 -7.15488 10231 ft 344 kts 63°
2026-05-06 12:13 39.58465 -7.12692 10547 ft 350 kts 63°
2026-05-06 12:14 39.59538 -7.09860 11484 ft 351 kts 63°
2026-05-06 12:14 39.60617 -7.07007 12285 ft 355 kts 63°
2026-05-06 12:14 39.61715 -7.04107 13045 ft 360 kts 63°
2026-05-06 12:14 39.62823 -7.01179 13788 ft 364 kts 63°
2026-05-06 12:15 39.63946 -6.98214 14521 ft 367 kts 63°
2026-05-06 12:15 39.65078 -6.95226 15221 ft 371 kts 63°
2026-05-06 12:15 39.66217 -6.92208 15921 ft 374 kts 63°
2026-05-06 12:15 39.67365 -6.89155 16613 ft 378 kts 63°
2026-05-06 12:16 39.68520 -6.86081 17269 ft 381 kts 63°
2026-05-06 12:16 39.69688 -6.82973 17911 ft 384 kts 63°
2026-05-06 12:16 39.70863 -6.79842 18529 ft 388 kts 63°
2026-05-06 12:16 39.72050 -6.76681 19145 ft 391 kts 63°
2026-05-06 12:17 39.73248 -6.73495 19731 ft 394 kts 63°
2026-05-06 12:17 39.74454 -6.70280 20306 ft 398 kts 63°
2026-05-06 12:17 39.75667 -6.67035 20871 ft 401 kts 63°
2026-05-06 12:17 39.76889 -6.63763 21412 ft 404 kts 63°
2026-05-06 12:18 39.78123 -6.60457 21935 ft 407 kts 63°
2026-05-06 12:18 39.79365 -6.57136 22452 ft 410 kts 63°
2026-05-06 12:18 39.80614 -6.53791 22963 ft 413 kts 63°
2026-05-06 12:18 39.81870 -6.50418 23438 ft 415 kts 64°
2026-05-06 12:19 39.83130 -6.47024 23906 ft 419 kts 64°
2026-05-06 12:19 39.84399 -6.43601 24364 ft 421 kts 64°
2026-05-06 12:19 39.85681 -6.40145 24805 ft 425 kts 64°
2026-05-06 12:19 39.86942 -6.36661 25231 ft 427 kts 65°
2026-05-06 12:20 39.88157 -6.33113 25647 ft 430 kts 66°
2026-05-06 12:20 39.89339 -6.29524 26043 ft 433 kts 66°
2026-05-06 12:20 39.90510 -6.25901 26445 ft 436 kts 66°
2026-05-06 12:20 39.91689 -6.22248 26838 ft 438 kts 66°
2026-05-06 12:21 39.92881 -6.18578 27231 ft 441 kts 66°
2026-05-06 12:21 39.94092 -6.14898 27598 ft 443 kts 66°
2026-05-06 12:21 39.95303 -6.11249 27966 ft 445 kts 66°
2026-05-06 12:21 39.96538 -6.07526 28324 ft 448 kts 66°
2026-05-06 12:22 39.97777 -6.03794 28674 ft 450 kts 65°
2026-05-06 12:22 39.99024 -6.00036 29024 ft 452 kts 65°
2026-05-06 12:22 40.00271 -5.96258 29359 ft 455 kts 66°
2026-05-06 12:22 40.01524 -5.92458 29695 ft 457 kts 66°
2026-05-06 12:23 40.02781 -5.88635 29995 ft 460 kts 66°
2026-05-06 12:23 40.04043 -5.84792 30295 ft 461 kts 65°
2026-05-06 12:23 40.05307 -5.80932 30570 ft 464 kts 65°
2026-05-06 12:23 40.06577 -5.77046 30842 ft 467 kts 65°
2026-05-06 12:24 40.07438 -5.74409 31024 ft 468 kts 65°
2026-05-06 12:24 40.08699 -5.70540 31277 ft 471 kts 65°
2026-05-06 12:24 40.09982 -5.66593 31534 ft 473 kts 65°
2026-05-06 12:24 40.11273 -5.62624 31824 ft 475 kts 65°
2026-05-06 12:25 40.12564 -5.58657 32194 ft 474 kts 65°
2026-05-06 12:25 40.13851 -5.54694 32552 ft 474 kts 65°
2026-05-06 12:25 40.15138 -5.50724 32883 ft 474 kts 65°
2026-05-06 12:25 40.16422 -5.46758 33195 ft 474 kts 65°
2026-05-06 12:26 40.17708 -5.42781 33527 ft 474 kts 65°
2026-05-06 12:26 40.18990 -5.38810 33875 ft 473 kts 65°
2026-05-06 12:26 40.20266 -5.34849 34216 ft 473 kts 65°
2026-05-06 12:26 40.21542 -5.30877 34536 ft 473 kts 65°
2026-05-06 12:27 40.22815 -5.26908 34866 ft 473 kts 65°
2026-05-06 12:27 40.24086 -5.22937 35179 ft 473 kts 65°
2026-05-06 12:27 40.25358 -5.18965 35469 ft 473 kts 64°
2026-05-06 12:27 40.26632 -5.14986 35742 ft 473 kts 64°
2026-05-06 12:28 40.27905 -5.11016 36028 ft 473 kts 64°
2026-05-06 12:28 40.29175 -5.07045 36271 ft 473 kts 64°
2026-05-06 12:28 40.30447 -5.03062 36496 ft 474 kts 64°
2026-05-06 12:28 40.31716 -4.99076 36734 ft 474 kts 64°
2026-05-06 12:29 40.32982 -4.95093 37002 ft 473 kts 64°
2026-05-06 12:29 40.34243 -4.91112 37276 ft 472 kts 64°
2026-05-06 12:29 40.35500 -4.87141 37539 ft 471 kts 64°
2026-05-06 12:29 40.36753 -4.83178 37789 ft 470 kts 64°
2026-05-06 12:30 40.38004 -4.79215 38031 ft 469 kts 64°
2026-05-06 12:30 40.39248 -4.75262 38210 ft 469 kts 64°
2026-05-06 12:30 40.41734 -4.67352 38257 ft 468 kts 64°
2026-05-06 12:31 40.44213 -4.59441 38257 ft 468 kts 64°
2026-05-06 12:31 40.46692 -4.51549 38247 ft 467 kts 64°
2026-05-06 12:32 40.49158 -4.43649 38248 ft 467 kts 64°
2026-05-06 12:32 40.51617 -4.35736 38249 ft 467 kts 64°
2026-05-06 12:33 40.54052 -4.27873 38252 ft 467 kts 64°
2026-05-06 12:33 40.56494 -4.19955 38254 ft 468 kts 64°
2026-05-06 12:34 40.58942 -4.12025 38256 ft 468 kts 64°
2026-05-06 12:34 40.61382 -4.04086 38258 ft 468 kts 64°
2026-05-06 12:35 40.63818 -3.96145 38260 ft 468 kts 64°
2026-05-06 12:35 40.66246 -3.88201 38265 ft 467 kts 65°
2026-05-06 12:36 40.68661 -3.80262 38269 ft 467 kts 65°
2026-05-06 12:36 40.71071 -3.72318 38266 ft 466 kts 65°
2026-05-06 12:37 40.73471 -3.64383 38269 ft 465 kts 65°
2026-05-06 12:37 40.75865 -3.56460 38267 ft 465 kts 65°
2026-05-06 12:38 40.78233 -3.48589 38266 ft 464 kts 65°
2026-05-06 12:38 40.80613 -3.40677 38266 ft 464 kts 65°
2026-05-06 12:39 40.82983 -3.32763 38268 ft 463 kts 65°
2026-05-06 12:39 40.85307 -3.24833 38267 ft 464 kts 69°
2026-05-06 12:40 40.86985 -3.16582 38273 ft 465 kts 72°
2026-05-06 12:40 40.88613 -3.08322 38275 ft 464 kts 72°
2026-05-06 12:41 40.90243 -3.00065 38273 ft 464 kts 73°
2026-05-06 12:41 40.91861 -2.91808 38267 ft 464 kts 73°
2026-05-06 12:42 40.93468 -2.83556 38269 ft 463 kts 73°
2026-05-06 12:42 40.95069 -2.75306 38265 ft 463 kts 73°
2026-05-06 12:43 40.96660 -2.67057 38265 ft 462 kts 73°
2026-05-06 12:43 40.98234 -2.58863 38265 ft 462 kts 73°
2026-05-06 12:44 40.99807 -2.50615 38263 ft 462 kts 73°
2026-05-06 12:44 41.01373 -2.42372 38266 ft 462 kts 73°
2026-05-06 12:45 41.02940 -2.34131 38269 ft 461 kts 73°
2026-05-06 12:46 41.05292 -2.21779 38266 ft 461 kts 73°
2026-05-06 12:46 41.06844 -2.13542 38266 ft 461 kts 73°
2026-05-06 12:47 41.08382 -2.05303 38259 ft 460 kts 73°
2026-05-06 12:47 41.09914 -1.97066 38258 ft 460 kts 73°
2026-05-06 12:48 41.11443 -1.88831 38260 ft 459 kts 73°
2026-05-06 12:48 41.12961 -1.80615 38257 ft 459 kts 74°
2026-05-06 12:49 41.14468 -1.72394 38255 ft 459 kts 73°
2026-05-06 12:49 41.15976 -1.64169 38255 ft 459 kts 74°
2026-05-06 12:50 41.17473 -1.55935 38259 ft 459 kts 74°
2026-05-06 12:50 41.18967 -1.47703 38257 ft 459 kts 74°
2026-05-06 12:51 41.20452 -1.39520 38260 ft 459 kts 74°
2026-05-06 12:51 41.21939 -1.31276 38258 ft 459 kts 74°
2026-05-06 12:52 41.23416 -1.23027 38258 ft 458 kts 74°
2026-05-06 12:52 41.24881 -1.14793 38256 ft 458 kts 74°
2026-05-06 12:53 41.26344 -1.06548 38255 ft 458 kts 74°
2026-05-06 12:53 41.27805 -0.98311 38249 ft 458 kts 74°
2026-05-06 12:54 41.29256 -0.90065 38246 ft 458 kts 74°
2026-05-06 12:54 41.30706 -0.81808 38248 ft 459 kts 74°
2026-05-06 12:55 41.32153 -0.73538 38252 ft 459 kts 74°
2026-05-06 12:55 41.33583 -0.65249 38256 ft 459 kts 75°
2026-05-06 12:56 41.34886 -0.56925 38253 ft 461 kts 82°
2026-05-06 12:56 41.34687 -0.48390 38213 ft 466 kts 97°
2026-05-06 12:56 41.34199 -0.44071 37954 ft 477 kts 97°
2026-05-06 12:57 41.33710 -0.39730 37729 ft 482 kts 97°
2026-05-06 12:57 41.33215 -0.35310 37053 ft 484 kts 97°
2026-05-06 12:57 41.32721 -0.30910 36630 ft 477 kts 97°
2026-05-06 12:57 41.32229 -0.26559 36041 ft 474 kts 97°
2026-05-06 12:58 41.31740 -0.22253 35218 ft 468 kts 97°
2026-05-06 12:58 41.31251 -0.17979 34172 ft 464 kts 96°
2026-05-06 12:58 41.30762 -0.13737 32930 ft 464 kts 96°
2026-05-06 12:58 41.30278 -0.09573 32435 ft 446 kts 96°
2026-05-06 12:59 41.29810 -0.05565 31871 ft 432 kts 96°
2026-05-06 12:59 41.29446 -0.01659 31291 ft 423 kts 87°
2026-05-06 12:59 41.29638 0.02261 30822 ft 427 kts 81°
2026-05-06 12:59 41.29939 0.06200 30575 ft 429 kts 80°
2026-05-06 13:00 41.30244 0.10133 30326 ft 426 kts 80°
2026-05-06 13:00 41.30543 0.14050 30074 ft 424 kts 80°
2026-05-06 13:00 41.30838 0.17936 29824 ft 422 kts 80°
2026-05-06 13:00 41.31130 0.21807 29574 ft 420 kts 80°
2026-05-06 13:01 41.31417 0.25674 29328 ft 419 kts 80°
2026-05-06 13:01 41.31701 0.29526 29073 ft 418 kts 81°
2026-05-06 13:01 41.31982 0.33370 28818 ft 417 kts 81°
2026-05-06 13:01 41.32263 0.37196 28573 ft 415 kts 81°
2026-05-06 13:02 41.32545 0.41012 28321 ft 414 kts 81°
2026-05-06 13:02 41.32825 0.44817 28072 ft 413 kts 81°
2026-05-06 13:02 41.33100 0.48607 27820 ft 411 kts 81°
2026-05-06 13:02 41.33374 0.52397 27569 ft 410 kts 81°
2026-05-06 13:03 41.33646 0.56165 27319 ft 409 kts 81°
2026-05-06 13:03 41.33918 0.59923 27067 ft 407 kts 81°
2026-05-06 13:03 41.34184 0.63672 26816 ft 406 kts 81°
2026-05-06 13:03 41.34448 0.67403 26565 ft 405 kts 81°
2026-05-06 13:04 41.34708 0.71076 26317 ft 404 kts 81°
2026-05-06 13:04 41.34974 0.74837 26068 ft 402 kts 81°
2026-05-06 13:04 41.35233 0.78538 25819 ft 401 kts 81°
2026-05-06 13:04 41.35484 0.82180 25571 ft 399 kts 81°
2026-05-06 13:05 41.35738 0.85855 25315 ft 398 kts 81°
2026-05-06 13:05 41.35992 0.89521 25070 ft 396 kts 81°
2026-05-06 13:05 41.36243 0.93173 24815 ft 395 kts 81°
2026-05-06 13:05 41.36493 0.96811 24562 ft 394 kts 81°
2026-05-06 13:06 41.36740 1.00437 24309 ft 392 kts 81°
2026-05-06 13:06 41.36984 1.04042 24063 ft 391 kts 81°
2026-05-06 13:06 41.37228 1.07644 23803 ft 389 kts 81°
2026-05-06 13:06 41.37466 1.11211 23339 ft 385 kts 82°
2026-05-06 13:07 41.37700 1.14755 22851 ft 383 kts 82°
2026-05-06 13:07 41.37930 1.18270 22378 ft 380 kts 82°
2026-05-06 13:07 41.38159 1.21762 21924 ft 377 kts 82°
2026-05-06 13:07 41.38388 1.25232 21470 ft 375 kts 82°
2026-05-06 13:08 41.38539 1.27518 21175 ft 373 kts 82°
2026-05-06 13:08 41.38763 1.30946 20723 ft 371 kts 82°
2026-05-06 13:08 41.38986 1.34354 20271 ft 368 kts 82°
2026-05-06 13:08 41.39205 1.37742 19824 ft 366 kts 82°
2026-05-06 13:09 41.39421 1.41108 19389 ft 364 kts 82°
2026-05-06 13:09 41.39635 1.44456 18952 ft 361 kts 82°
2026-05-06 13:09 41.39846 1.47775 18518 ft 359 kts 82°
2026-05-06 13:09 41.40053 1.51075 18088 ft 356 kts 82°
2026-05-06 13:10 41.40258 1.54360 17649 ft 354 kts 82°
2026-05-06 13:10 41.40465 1.57622 17242 ft 352 kts 82°
2026-05-06 13:10 41.40672 1.60869 16837 ft 350 kts 82°
2026-05-06 13:10 41.40872 1.64045 16433 ft 348 kts 82°
2026-05-06 13:11 41.41071 1.67247 16036 ft 346 kts 82°
2026-05-06 13:11 41.41267 1.70434 15644 ft 344 kts 82°
2026-05-06 13:11 41.41460 1.73600 15252 ft 342 kts 82°
2026-05-06 13:11 41.41653 1.76746 14859 ft 340 kts 82°
2026-05-06 13:12 41.41845 1.79877 14480 ft 338 kts 83°
2026-05-06 13:12 41.42032 1.82987 14115 ft 336 kts 83°
2026-05-06 13:12 41.42215 1.86083 13748 ft 334 kts 83°
2026-05-06 13:12 41.42399 1.89161 13371 ft 332 kts 83°
2026-05-06 13:13 41.42585 1.92215 12987 ft 330 kts 83°
2026-05-06 13:13 41.42768 1.95257 12588 ft 328 kts 83°
2026-05-06 13:13 41.42949 1.98274 12199 ft 326 kts 83°
2026-05-06 13:13 41.43131 2.01284 11814 ft 325 kts 83°
2026-05-06 13:14 41.43311 2.04270 11437 ft 322 kts 83°
2026-05-06 13:14 41.43488 2.07236 11053 ft 320 kts 83°
2026-05-06 13:14 41.43659 2.10174 10667 ft 317 kts 83°
2026-05-06 13:14 41.43818 2.13019 10403 ft 300 kts 83°
2026-05-06 13:15 41.43971 2.15761 9800 ft 295 kts 83°
2026-05-06 13:15 41.44128 2.18488 9098 ft 294 kts 83°
2026-05-06 13:15 41.44284 2.21189 8427 ft 291 kts 83°
2026-05-06 13:15 41.44435 2.23840 7798 ft 286 kts 83°
2026-05-06 13:16 41.44575 2.26460 7045 ft 287 kts 86°
2026-05-06 13:16 41.44146 2.29052 6274 ft 293 kts 117°
2026-05-06 13:16 41.42732 2.30981 5494 ft 296 kts 150°
2026-05-06 13:16 41.40761 2.31869 4688 ft 295 kts 174°
2026-05-06 13:17 41.38775 2.31470 3963 ft 288 kts 208°
2026-05-06 13:17 41.37263 2.29883 3415 ft 274 kts 236°
2026-05-06 13:17 41.36403 2.27728 2845 ft 258 kts 249°
2026-05-06 13:17 41.35754 2.25641 2482 ft 231 kts 249°
2026-05-06 13:18 41.35139 2.23776 2166 ft 211 kts 248°
2026-05-06 13:18 41.34561 2.22077 1931 ft 191 kts 248°
2026-05-06 13:18 41.34043 2.20560 1708 ft 169 kts 249°
2026-05-06 13:18 41.33578 2.19194 1476 ft 153 kts 249°
2026-05-06 13:19 41.33157 2.17958 1266 ft 141 kts 250°
2026-05-06 13:19 41.32760 2.16792 1078 ft 136 kts 249°
2026-05-06 13:19 41.32373 2.15656 906 ft 134 kts 250°
2026-05-06 13:19 41.31988 2.14523 729 ft 134 kts 249°
2026-05-06 13:20 41.31604 2.13403 499 ft 131 kts 251°
2026-05-06 13:20 41.31226 2.12297 315 ft 131 kts 250°
2026-05-06 13:20 41.30851 2.11198 190 ft 132 kts 250°
2026-05-06 13:20 41.30464 2.10070 30 ft 131 kts 249°
2026-05-06 13:21 41.30142 2.09075 19 ft 101 kts 243°
2026-05-06 13:21 41.29908 2.08430 29 ft 58 kts 248°